Wind_Speed
72 73 73 74 74 75 75 76 76 77 77 77 76 76 75 75 74 73 72 72 71 70 68 67 66 65 65 64 64 64 63 63 64 65 66 66 66 66 66 67 67 68 68 68 69 69 70 71 71 71 71 72 73 75 76 78 80 80 80 80 80 82 85 88 90 92 93 94 92 88 83 81 80 80 81 83 88 92 88 84 82 83 85 85 84 83 81 80
72 72 73 73 74 75 75 75 76 76 75 75 75 74 74 73 72 71 70 69 68 67 66 66 65 64 64 63 62 62 62 62 63 64 65 65 65 66 66 66 66 67 67 68 68 69 70 70 70 70 70 71 71 73 73 75 75 75 76 76 78 81 84 88 90 91 92 92 91 85 81 82 83 82 83 84 89 91 86 83 82 83 85 84 81 80 79 79
70 70 71 72 72 73 73 72 72 72 72 72 72 71 71 70 69 68 67 66 65 65 65 65 64 63 63 62 62 62 62 62 63 65 65 65 65 65 66 66 67 67 67 68 69 69 70 70 70 70 71 71 71 72 72 73 72 72 72 72 76 80 83 86 88 90 90 89 88 83 80 82 84 85 86 84 86 89 85 82 82 83 85 83 80 79 79 79
67 68 69 69 68 68 67 67 67 67 67 67 67 67 66 66 65 64 64 63 63 63 64 63 63 63 63 63 63 63 62 62 65 66 66 65 66 66 66 67 67 68 68 69 70 70 71 71 71 71 72 72 73 73 72 73 72 72 71 72 76 79 82 85 86 88 87 85 84 81 79 80 82 85 87 83 84 88 84 82 82 83 84 83 80 79 79 79
65 65 65 64 63 63 63 63 63 63 63 63 63 62 62 62 62 62 62 62 63 63 63 63 63 63 64 64 64 64 63 63 66 68 67 66 66 67 67 68 69 69 70 71 71 72 72 72 73 73 73 74 74 74 74 75 74 73 71 73 78 79 82 84 84 84 82 80 79 78 78 79 81 85 85 83 84 86 83 81 81 82 82 81 79 79 79 79
62 62 61 61 61 61 61 61 61 61 60 60 60 59 59 59 60 61 61 62 62 62 63 63 63 64 64 64 64 64 64 64 67 69 68 67 67 68 69 69 70 70 71 72 73 73 74 74 74 74 75 76 76 76 77 77 75 74 73 76 79 81 83 83 82 81 79 77 77 77 79 81 82 82 82 83 83 82 80 79 79 80 79 79 79 78 78 77
59 59 59 60 60 60 60 60 60 60 60 59 58 58 58 58 59 60 60 61 62 62 63 63 64 64 64 65 65 65 64 65 67 69 69 68 68 69 69 70 71 72 72 73 74 75 75 76 76 77 77 77 78 78 79 79 77 75 76 78 80 82 83 83 82 80 78 78 77 79 81 82 80 78 81 82 80 79 78 77 78 78 77 77 77 76 76 75
59 59 60 60 61 61 61 61 61 61 60 60 59 59 59 59 59 60 60 61 62 63 63 64 64 65 65 65 65 65 65 66 68 69 69 69 69 69 70 71 72 73 73 74 75 76 76 77 78 78 78 79 79 79 79 79 77 76 77 80 81 83 84 83 81 81 80 78 78 81 83 82 79 80 82 79 77 77 76 76 76 76 75 75 74 73 73 72
60 61 62 62 63 63 63 63 62 62 61 61 60 60 60 61 61 61 62 62 63 63 64 64 65 65 65 65 65 65 65 67 68 68 69 69 70 70 70 72 73 73 74 75 75 76 76 77 78 78 78 78 79 79 79 79 77 77 79 81 82 82 83 83 81 82 81 77 79 84 84 82 81 82 81 77 77 77 76 75 75 74 73 72 72 72 72 70
62 62 63 64 64 64 64 64 63 63 62 62 61 61 61 62 62 63 63 63 64 64 65 65 65 65 65 65 66 65 65 66 67 68 69 69 69 70 70 71 72 73 73 74 74 74 75 75 76 76 76 76 77 77 77 77 77 78 79 81 82 82 82 82 81 81 80 78 80 85 84 83 83 83 81 78 78 78 77 75 74 73 72 72 72 71 71 70
62 63 64 64 64 64 64 64 64 64 64 63 63 62 62 62 62 63 63 63 64 64 65 65 65 65 65 66 66 65 65 65 67 69 69 68 69 69 70 70 71 71 71 72 72 72 73 73 73 73 73 74 75 75 76 76 77 77 77 79 81 80 80 79 79 79 79 79 80 83 83 83 83 82 81 79 80 79 77 75 74 73 72 72 72 71 70 69
62 63 64 64 64 65 65 65 65 65 65 65 65 64 64 63 63 63 63 63 63 64 65 65 65 65 65 66 66 65 65 65 66 68 68 68 67 67 68 69 69 69 69 69 69 70 70 71 71 71 71 72 72 73 73 73 74 74 74 76 78 76 76 76 76 77 77 77 79 81 80 80 80 80 80 80 80 78 75 74 74 72 72 72 71 70 70 69
62 63 64 64 65 65 66 66 66 66 66 66 66 66 66 65 64 64 64 63 64 64 65 65 65 65 65 66 65 65 66 66 65 66 67 67 66 66 66 67 67 66 66 67 67 67 67 67 67 67 68 69 69 69 69 70 70 70 71 72 72 71 71 72 73 74 73 74 76 77 76 76 77 77 78 79 78 77 74 72 72 71 71 70 69 69 68 68
63 64 65 65 66 67 67 67 68 68 68 68 68 68 67 67 66 65 65 64 64 65 65 65 65 64 65 66 65 65 66 65 64 65 65 66 65 65 64 64 64 64 63 63 63 63 63 64 63 63 64 64 64 65 65 66 65 65 66 66 66 66 66 68 69 70 69 70 73 72 70 72 73 73 75 75 75 75 71 69 69 68 68 67 66 66 66 65
65 66 66 67 68 69 69 70 70 70 70 70 70 70 69 69 67 66 65 65 65 65 65 64 64 64 65 66 65 65 65 64 64 65 65 65 64 63 62 61 61 61 60 59 59 59 59 60 59 59 61 60 59 60 61 61 60 61 62 62 62 62 63 66 66 66 66 66 69 67 65 67 69 70 70 71 72 71 68 66 66 65 64 63 63 63 62 62
67 67 68 69 70 71 71 72 72 72 73 73 73 72 72 71 69 68 67 66 66 66 65 64 64 64 65 66 66 65 65 65 64 65 64 63 62 61 59 59 58 57 56 56 55 55 56 57 56 56 57 56 55 58 58 57 57 59 60 60 61 60 62 64 63 63 63 64 65 63 61 63 66 66 67 68 68 67 64 63 62 60 59 58 59 60 59 59
67 67 68 69 70 71 72 73 73 73 74 75 75 75 74 73 72 71 69 68 68 68 67 65 65 65 65 66 67 65 65 65 64 65 63 61 59 58 56 55 55 53 53 52 52 52 53 54 53 53 54 53 54 56 55 53 56 59 60 60 60 60 61 62 62 62 62 62 62 61 60 60 63 65 64 64 64 63 60 60 58 55 54 55 57 58 56 57
65 65 66 68 69 70 71 72 72 73 73 74 75 75 76 75 74 73 71 70 71 70 69 67 67 67 66 66 66 65 65 65 65 64 61 58 56 54 53 52 51 50 49 50 51 51 51 51 51 51 52 52 54 54 52 53 57 59 59 59 60 60 60 60 62 63 62 61 61 60 58 58 62 64 62 61 61 60 55 56 56 52 51 53 54 55 55 55
63 64 66 67 69 70 71 72 72 72 72 73 73 74 74 74 74 73 72 72 72 72 70 68 68 67 66 66 65 65 64 63 64 61 57 56 53 51 49 49 49 48 48 49 49 49 49 49 49 49 51 53 54 53 52 54 57 57 58 58 58 57 57 58 60 63 62 59 59 59 55 56 63 63 60 59 58 56 51 52 54 50 50 51 51 52 53 52
64 65 66 68 69 70 70 70 70 70 70 70 70 71 71 71 72 71 70 71 71 71 69 68 67 66 65 64 63 63 62 61 60 56 53 53 50 47 46 47 47 46 47 48 48 47 46 47 48 49 52 52 52 51 51 53 55 55 55 54 54 54 54 55 59 63 61 57 57 58 55 56 63 62 57 57 56 54 50 51 52 48 48 48 47 48 49 48
64 65 67 67 68 68 68 68 67 67 67 66 67 67 68 68 68 68 67 68 69 67 66 65 64 63 62 60 60 59 58 57 56 52 49 49 47 44 44 45 45 46 46 45 45 46 45 46 49 50 51 50 49 49 49 50 53 53 52 51 51 53 53 55 59 62 60 57 56 58 56 55 60 61 56 55 55 52 50 50 49 47 46 46 45 45 46 46
65 65 66 66 65 65 66 66 65 64 63 63 63 63 64 64 64 64 62 63 65 63 62 61 59 59 57 55 56 55 53 53 51 48 46 47 46 43 43 45 44 44 44 43 44 44 44 46 49 48 47 46 46 47 47 49 51 50 49 49 51 52 54 56 58 60 60 58 56 57 56 54 58 60 56 55 54 51 50 49 48 46 44 43 42 42 45 44
64 64 63 63 62 62 63 63 64 62 61 60 60 60 61 61 60 60 59 58 62 61 58 58 56 54 54 53 52 51 50 49 48 45 44 45 44 41 42 44 42 42 42 41 42 42 44 46 45 44 44 44 44 45 45 47 47 45 46 48 49 52 54 55 57 59 60 59 56 55 54 54 57 58 56 55 53 51 49 49 49 46 42 41 41 41 43 42
62 61 60 60 59 60 60 60 60 59 58 57 57 57 58 58 58 57 56 54 58 59 54 53 53 52 52 50 48 49 48 46 45 44 43 44 42 39 42 43 40 40 40 40 40 40 43 43 41 41 42 42 42 42 43 43 43 43 45 46 48 51 51 53 56 58 60 58 53 51 52 53 55 57 57 55 52 49 48 50 50 45 41 39 39 40 40 38
59 58 58 58 57 57 57 56 55 55 55 54 54 55 55 56 56 55 54 52 55 58 51 49 53 53 50 47 47 48 46 44 44 42 42 43 40 39 42 40 39 39 39 38 38 39 40 39 38 39 40 40 40 40 40 41 42 43 44 45 47 49 49 51 53 55 59 56 49 48 51 52 53 56 56 52 50 49 47 49 51 45 40 39 39 39 38 38
57 56 56 55 54 53 52 51 50 49 50 51 52 52 52 53 53 52 52 49 51 55 50 47 51 52 48 44 45 46 44 43 42 39 41 43 39 38 39 38 38 38 37 36 35 37 38 36 36 38 37 37 38 38 40 42 42 42 44 45 46 48 49 50 52 53 55 52 45 46 51 52 53 54 53 49 49 50 47 48 50 44 40 39 38 37 38 40
55 54 53 52 50 49 47 46 46 44 44 47 48 48 48 50 50 49 48 46 48 52 50 47 50 51 46 42 44 45 43 42 41 39 41 42 38 36 37 37 37 37 35 34 34 36 36 34 34 36 35 36 37 39 41 40 40 41 44 45 46 48 48 49 51 51 51 48 45 46 49 51 51 51 51 49 50 49 46 48 50 44 40 39 38 38 39 40
53 51 49 47 46 44 42 42 42 40 40 43 44 43 45 47 46 46 44 43 45 48 48 47 48 48 44 42 44 44 42 41 41 39 39 40 37 35 36 37 37 36 33 32 33 34 34 32 33 34 34 36 37 38 39 38 39 42 43 43 45 46 47 48 49 48 48 46 44 46 47 48 48 48 50 49 48 48 47 48 49 44 41 39 39 39 40 39
50 48 44 42 41 40 39 39 39 38 37 39 40 40 42 43 43 43 41 41 44 47 47 46 46 46 43 42 44 44 40 40 41 38 38 40 37 35 36 36 35 34 32 31 32 32 31 30 32 33 34 36 36 36 36 37 39 41 41 41 43 44 44 46 45 45 45 42 42 43 44 45 46 45 47 47 46 47 47 48 47 43 40 40 40 41 41 38
48 44 41 38 38 37 36 36 36 35 35 37 37 38 39 40 41 40 38 39 44 46 44 43 45 46 44 42 43 42 39 40 39 36 37 40 36 35 36 35 34 33 32 31 32 31 30 29 30 32 34 35 34 34 36 38 39 39 39 41 42 42 43 44 43 43 41 39 41 42 41 42 43 44 46 45 44 46 47 46 43 41 40 41 41 42 40 37
45 41 38 36 35 35 35 35 34 33 33 34 34 35 35 37 37 35 36 40 43 45 43 42 46 46 43 42 42 40 39 39 38 35 38 39 35 34 35 33 33 33 32 32 31 31 29 28 29 32 34 34 33 34 36 38 39 39 40 41 42 42 43 43 42 41 38 38 41 41 40 41 42 44 44 42 42 44 44 43 40 38 39 40 41 41 38 36
42 39 37 35 34 34 34 34 33 32 32 32 32 33 33 33 33 33 37 41 42 44 42 42 46 46 43 42 40 39 39 38 36 35 37 38 35 34 34 33 33 32 32 32 31 29 27 27 29 31 33 32 31 33 36 38 39 40 40 41 42 42 43 42 40 38 37 39 41 41 41 41 42 43 42 40 41 42 42 40 37 37 39 40 40 38 36 34
40 38 37 35 34 33 34 35 33 31 31 31 31 31 31 30 31 34 39 41 42 44 44 43 46 46 43 41 40 39 39 37 35 35 37 37 35 35 34 34 33 33 33 32 30 29 27 26 28 30 31 30 30 33 37 39 40 40 40 41 42 42 41 40 39 37 37 39 41 42 42 41 41 41 39 38 39 39 39 36 35 36 37 37 35 34 34 33
38 37 36 35 34 34 34 35 34 32 31 31 30 30 29 30 33 37 39 41 43 44 44 45 45 44 41 40 40 40 39 37 35 35 36 37 36 35 34 34 33 34 33 31 30 30 28 27 28 29 30 29 31 35 37 38 39 39 40 40 40 40 39 39 39 38 38 39 41 42 41 39 38 37 36 37 37 37 35 33 32 31 29 29 29 31 32 32
38 37 36 35 35 35 35 35 35 34 32 32 31 30 31 33 37 39 39 41 43 44 46 45 44 43 41 41 42 41 39 39 37 36 36 36 35 35 35 35 34 34 33 30 30 30 29 28 29 29 29 29 32 35 36 36 37 38 39 38 39 40 39 39 40 39 40 40 40 40 38 36 34 33 34 35 35 34 33 31 30 29 28 27 26 27 29 31
38 37 37 36 36 35 35 36 36 35 34 33 32 32 35 37 39 40 41 42 44 46 46 45 44 43 42 43 42 41 41 41 39 38 36 35 36 36 36 36 35 34 33 31 31 31 29 29 29 28 28 29 32 34 34 36 37 37 38 38 39 41 41 40 40 40 40 39 39 39 37 35 33 33 33 34 34 32 30 29 29 29 30 30 27 26 28 30
38 38 38 38 37 36 36 37 36 36 36 35 34 36 38 39 40 41 42 43 46 46 45 44 44 42 42 43 43 43 44 43 41 40 37 35 36 36 37 37 35 35 34 33 32 31 30 29 28 28 28 29 32 33 34 37 38 38 39 39 40 41 41 41 41 41 40 39 39 39 38 36 35 34 32 32 32 29 27 28 29 28 29 30 31 30 29 30
38 39 39 39 40 39 38 38 38 37 36 36 37 39 40 40 41 43 44 45 46 46 45 45 44 42 43 45 45 47 46 44 43 41 38 36 36 36 37 37 36 35 35 34 33 31 30 30 29 28 28 29 31 32 33 36 37 39 39 39 40 41 40 40 41 40 39 39 39 39 38 37 36 34 31 29 28 27 27 29 30 30 30 29 31 33 31 30
39 40 40 41 41 42 41 41 40 39 39 38 39 40 41 42 43 44 45 46 47 47 46 46 45 44 45 47 48 50 48 45 44 42 39 38 37 37 37 37 36 35 35 34 32 31 31 30 30 29 28 29 31 31 32 34 37 38 39 39 40 41 40 40 39 39 39 39 39 39 39 38 36 34 31 27 25 26 29 32 33 33 33 31 32 33 32 30
40 41 42 42 42 43 43 43 42 42 41 42 42 43 43 44 44 46 47 48 48 48 49 48 46 44 46 48 49 49 48 46 45 43 40 39 38 38 39 39 37 36 36 34 32 31 30 29 30 30 30 31 31 31 32 35 37 39 39 39 41 41 40 39 38 38 39 39 39 41 41 39 35 33 32 30 28 28 30 31 32 33 32 31 33 34 33 34
40 41 42 43 44 44 44 44 44 43 43 44 44 45 45 46 47 48 49 50 50 51 50 48 44 43 47 49 48 48 49 47 45 42 40 38 39 39 40 40 39 38 37 34 32 31 28 29 31 31 31 31 31 33 35 35 37 39 39 39 41 42 42 41 40 39 39 39 40 41 41 39 35 32 31 31 32 32 31 30 30 31 30 29 32 34 34 35
41 42 43 43 44 45 45 45 45 44 44 45 46 46 47 48 49 50 52 53 54 53 49 46 44 45 49 50 49 51 51 47 43 41 40 40 40 40 41 41 40 39 37 34 32 31 28 29 31 32 32 32 32 34 35 34 35 37 39 41 43 43 43 43 43 42 40 40 41 41 41 40 37 33 30 30 32 32 32 32 32 32 31 30 31 35 37 37
41 43 44 44 44 45 45 45 44 44 44 45 45 46 47 48 49 52 54 55 55 52 49 48 48 50 53 54 53 54 51 46 45 44 43 42 41 40 42 42 40 38 36 36 35 33 31 31 32 32 31 31 32 33 33 33 33 34 37 41 43 42 42 43 44 43 42 43 44 42 42 42 40 37 35 34 33 31 31 33 34 34 33 32 33 35 37 40
41 43 44 44 44 44 45 45 44 44 44 44 45 47 47 48 49 51 53 53 52 52 50 51 52 53 57 57 55 54 50 47 48 48 46 45 42 41 42 42 40 39 39 39 37 35 34 33 33 32 30 31 32 33 33 34 34 35 36 37 38 37 38 40 42 43 44 46 46 45 44 42 39 37 37 38 37 33 30 29 31 32 33 33 34 34 34 37
41 42 44 44 44 44 44 44 43 43 43 43 44 45 46 47 48 49 51 52 53 52 52 52 53 55 57 58 56 53 49 49 50 49 46 45 43 43 43 42 41 42 42 40 38 37 35 33 33 33 31 32 33 33 34 34 35 36 37 36 36 35 37 39 40 42 44 46 46 44 43 41 39 38 38 38 37 37 35 32 32 32 32 34 34 33 35 38
41 42 43 43 43 42 40 39 38 38 39 39 40 41 42 44 45 46 49 52 53 52 52 52 52 54 57 58 56 54 52 53 53 50 46 44 43 44 45 44 44 45 44 41 40 39 37 35 35 35 34 35 36 35 35 35 35 36 37 38 38 37 38 39 39 40 43 44 44 44 44 43 42 42 42 40 38 38 37 34 33 31 31 33 34 33 36 40
41 40 39 38 37 37 35 34 33 33 34 35 36 38 39 39 41 42 45 49 50 49 50 52 53 54 57 58 56 55 56 56 54 50 46 43 43 44 46 46 47 46 45 43 43 41 39 39 39 38 38 39 39 39 38 38 38 37 37 38 38 39 40 40 39 40 41 41 42 44 45 46 46 46 46 44 41 40 39 36 33 30 28 32 37 37 38 40
36 36 35 34 33 33 32 30 29 29 29 30 32 34 35 36 37 39 42 44 44 45 47 50 53 55 56 57 55 54 55 54 52 49 45 43 43 44 45 47 48 48 46 45 45 43 42 42 42 42 42 41 41 42 42 41 40 38 37 37 38 39 41 41 40 40 39 39 41 43 44 46 47 47 47 45 42 41 40 39 39 38 35 37 42 43 42 40
31 31 31 31 32 32 31 29 27 27 26 27 28 30 31 32 33 35 38 40 40 42 44 47 49 51 53 54 54 53 54 53 50 48 46 46 46 47 47 48 47 48 48 47 46 45 44 45 45 45 44 44 44 44 44 44 43 41 40 40 41 42 42 42 41 40 40 41 42 43 44 46 47 47 47 47 44 42 40 41 46 48 47 45 46 47 47 46
27 28 29 30 30 31 31 29 26 25 24 24 24 26 27 29 30 32 34 35 36 39 42 44 45 46 47 49 52 54 56 55 53 51 50 48 48 49 49 48 48 49 50 50 48 47 47 48 48 48 48 47 46 46 47 48 47 46 45 45 46 45 44 43 42 42 44 44 43 43 44 46 46 46 48 49 48 46 43 44 50 55 54 52 52 55 56 57
26 27 28 29 29 29 29 28 26 24 22 21 21 22 24 25 27 29 30 30 32 35 39 42 43 42 42 44 49 53 56 58 57 56 54 52 51 51 51 50 50 51 54 54 51 50 52 53 52 51 51 50 47 47 49 52 52 50 49 50 50 49 47 46 45 47 48 47 45 42 41 41 41 42 45 48 50 50 47 47 51 56 56 55 56 60 63 65
25 26 27 27 27 26 26 26 25 23 21 20 19 19 20 21 23 25 27 28 30 33 36 39 40 39 39 42 46 49 54 58 59 58 57 55 53 52 51 51 52 55 56 56 55 56 58 58 56 54 53 53 51 49 50 53 54 54 54 54 55 54 52 50 49 50 51 49 45 40 36 35 36 38 41 44 46 49 51 51 53 56 56 55 55 58 62 64
Wind_Direction
260 260 261 261 261 261 262 262 262 263 263 263 264 264 264 264 264 264 263 263 263 263 263 262 262 261 260 260 259 258 258 257 257 257 256 256 256 256 256 256 256 256 256 256 257 257 257 256 256 256 256 255 255 255 254 254 254 254 254 254 254 253 253 253 253 253 254 255 255 257 259 260 259 258 257 257 258 259 261 262 262 262 263 263 263 265 266 266
260 261 261 261 261 262 262 262 263 263 264 264 264 264 264 264 264 263 262 262 262 262 262 261 261 260 259 258 258 257 257 257 257 256 256 256 256 255 255 255 255 256 256 257 257 257 257 257 257 257 257 256 256 255 255 255 255 254 254 254 254 254 254 253 253 254 254 255 256 256 258 259 258 257 256 256 258 261 262 262 262 262 263 263 264 266 266 266
262 262 262 262 262 263 263 264 264 264 264 264 264 263 263 263 263 262 261 261 261 261 260 260 260 259 258 257 257 256 256 257 257 256 256 256 256 256 256 255 255 256 256 257 257 257 257 257 257 257 257 257 256 256 256 255 255 254 254 254 254 254 254 254 254 254 254 255 256 256 256 257 258 258 256 256 259 261 261 262 262 262 263 264 265 265 266 266
262 262 262 263 263 264 264 264 264 264 263 263 263 263 262 262 261 261 260 260 260 260 260 259 259 258 258 257 257 257 256 257 257 257 256 256 256 256 256 256 256 256 256 257 257 257 257 257 257 257 257 257 257 256 256 256 255 254 254 254 253 253 254 254 254 255 255 257 258 258 257 256 257 258 258 257 258 259 260 261 262 263 264 265 265 265 265 266
261 262 262 263 263 263 263 263 263 263 263 263 262 262 261 261 260 260 259 259 259 259 259 259 259 259 258 258 258 257 257 258 258 258 257 257 257 257 257 257 257 257 257 257 258 258 258 258 258 258 257 257 257 256 256 256 255 255 254 254 254 254 254 255 255 256 257 258 258 259 258 256 255 256 258 257 257 259 260 261 262 263 264 265 265 265 265 266
260 261 261 262 262 262 262 262 263 263 263 263 262 261 260 260 259 259 259 259 259 259 259 259 259 259 259 259 259 259 258 259 260 260 259 258 258 259 259 259 259 259 259 259 259 259 259 259 258 258 258 257 257 257 256 255 255 255 254 254 254 254 255 255 256 257 257 257 257 258 257 255 255 256 258 258 258 259 260 261 262 262 263 264 264 265 265 266
260 260 261 261 261 261 262 263 263 263 263 262 261 260 259 259 259 258 258 258 258 259 259 259 260 260 260 260 260 260 260 260 261 261 261 260 260 260 261 261 261 261 260 260 260 260 260 260 259 259 258 258 257 257 256 256 255 255 255 254 254 254 255 255 256 257 257 257 256 256 256 256 256 257 257 257 258 259 260 261 261 262 263 264 265 266 266 266
260 260 261 261 261 262 262 263 263 263 262 262 260 259 258 258 258 258 258 258 258 259 259 260 260 261 261 261 261 261 262 261 261 262 263 263 262 262 262 262 262 262 262 262 262 261 261 261 260 259 259 258 257 257 257 257 256 255 255 254 254 254 254 255 255 256 255 256 256 256 256 257 257 257 256 257 259 259 260 260 261 261 262 263 265 265 266 266
259 259 260 261 261 262 263 263 263 262 262 261 260 259 258 257 257 257 257 258 258 259 259 260 260 261 262 262 262 262 262 263 263 264 264 264 264 264 264 264 264 263 263 263 263 262 262 261 260 260 259 259 258 257 257 257 256 255 254 254 253 253 254 254 254 254 255 255 256 256 256 256 256 256 257 257 258 259 259 259 260 262 263 263 264 264 265 266
258 259 260 261 261 262 262 262 262 262 261 261 260 259 258 257 257 257 257 258 259 259 260 260 261 262 262 263 263 263 263 264 265 265 265 265 266 266 265 265 265 265 264 264 263 263 262 261 260 260 259 259 258 257 257 256 255 254 253 254 253 253 253 254 254 254 254 254 254 255 255 256 256 256 257 257 257 258 258 259 260 261 262 263 263 264 265 266
258 259 260 260 261 261 261 261 261 261 261 261 260 259 259 258 258 258 258 258 259 259 260 261 261 262 263 263 264 264 264 265 266 266 266 266 267 267 267 266 266 266 265 264 263 262 262 261 260 259 259 258 257 257 256 255 255 254 253 253 253 253 253 253 253 253 253 252 252 253 254 255 256 256 257 256 256 257 258 259 260 260 262 262 263 264 265 266
259 259 260 260 261 261 261 261 261 261 261 261 260 260 259 259 258 258 258 259 259 260 260 261 262 263 264 264 264 265 265 265 266 268 268 268 267 268 268 267 267 266 265 265 264 262 261 261 260 259 258 257 257 256 256 255 254 254 254 253 253 253 253 253 253 252 252 251 251 252 253 254 255 256 256 256 256 256 257 259 259 260 261 262 263 264 264 265
260 260 261 261 261 262 262 262 262 262 261 261 261 260 260 259 259 259 259 259 259 260 261 262 262 263 264 264 265 266 266 266 267 268 269 269 268 268 268 268 267 267 266 265 264 262 261 260 259 258 258 257 256 256 255 255 254 254 253 253 254 254 253 253 252 251 251 251 251 252 253 254 255 256 256 256 256 256 256 258 259 259 260 261 262 263 264 264
262 262 263 263 263 263 263 263 263 263 262 262 261 261 260 260 259 259 259 259 260 260 261 262 263 263 264 265 266 266 267 268 268 268 269 270 270 270 270 269 269 267 266 264 263 262 261 260 259 258 257 256 256 256 255 255 254 254 254 254 254 253 253 252 252 251 250 251 251 251 252 254 254 255 256 256 256 256 255 256 258 259 260 261 261 262 263 263
264 265 265 265 265 265 265 265 264 264 263 263 262 261 261 260 260 259 259 260 260 260 261 261 263 263 264 266 266 267 268 269 269 270 270 271 272 271 271 270 269 267 265 263 262 261 260 259 258 257 257 256 256 256 255 255 255 254 253 253 253 252 252 251 251 251 250 250 251 251 251 253 254 254 255 256 256 256 255 255 256 258 259 261 261 261 261 262
266 267 267 267 267 266 266 266 265 265 264 263 263 262 261 261 260 260 259 260 260 260 261 261 262 263 265 266 267 268 269 270 271 271 272 272 273 273 271 269 267 266 265 263 262 260 260 259 258 257 257 257 256 256 255 255 255 254 253 252 251 250 250 251 251 250 250 249 250 250 249 251 253 253 254 255 256 256 256 255 255 256 257 258 259 259 259 261
268 268 268 268 268 267 267 266 266 265 265 264 263 262 262 261 261 260 260 260 260 260 261 261 262 264 265 267 268 269 270 271 271 272 273 274 274 272 270 268 266 265 264 262 261 260 259 259 258 257 257 257 256 255 255 255 253 252 251 250 249 248 248 249 249 248 248 248 248 248 248 249 252 252 252 254 255 255 255 255 254 254 255 255 257 258 258 259
269 269 269 269 269 268 268 267 267 266 266 265 264 262 261 261 260 260 260 260 260 260 261 262 263 263 265 266 268 269 270 271 271 272 274 274 272 270 268 266 265 263 262 261 260 259 259 259 259 258 258 256 255 254 252 251 250 249 249 248 248 247 247 248 249 248 247 247 248 247 247 248 249 250 251 252 254 254 255 256 254 252 252 253 255 257 258 258
270 271 271 271 270 270 269 269 268 267 266 265 263 262 261 260 260 259 259 259 259 260 260 261 262 263 264 266 267 269 269 270 271 273 273 272 269 268 266 265 263 262 260 260 259 259 259 259 259 258 257 254 253 252 250 249 249 249 249 248 249 249 248 248 249 249 247 247 248 247 246 247 249 249 250 252 253 254 254 254 254 251 251 252 254 257 259 259
273 274 274 273 273 272 271 270 269 268 266 265 263 262 261 260 259 259 259 259 259 259 260 260 262 263 264 265 267 268 269 269 270 272 271 269 268 266 264 262 261 260 259 259 260 260 259 259 258 256 254 253 252 251 250 249 249 249 249 249 250 250 249 248 248 249 247 245 246 247 244 244 248 249 249 250 251 252 251 251 253 252 251 252 253 256 259 259
276 277 276 276 275 274 273 272 270 268 266 264 262 261 260 259 259 259 258 258 258 259 259 260 261 262 263 265 266 266 267 268 269 269 268 267 265 263 262 261 260 259 259 260 261 260 259 258 255 253 252 253 252 251 250 249 249 249 249 248 248 247 246 245 245 246 246 244 243 245 243 242 247 249 247 248 249 249 249 249 251 251 251 252 253 255 256 257
279 279 278 277 276 275 274 272 271 268 266 264 262 261 260 259 258 258 258 258 258 258 259 260 260 262 263 263 264 265 266 267 267 267 266 264 263 261 260 259 259 259 260 260 260 260 258 256 254 254 254 253 253 252 250 249 248 248 247 246 244 243 243 242 243 244 244 242 240 241 243 241 244 247 246 246 246 247 247 248 249 249 250 252 252 253 254 255
281 280 279 278 277 276 275 273 271 269 266 263 262 260 259 258 257 257 256 256 258 258 258 259 259 260 262 261 262 264 264 265 266 265 263 262 261 261 260 259 259 260 260 260 260 259 258 256 255 256 255 253 252 251 249 248 248 247 245 244 242 242 242 241 242 243 243 241 239 239 241 242 242 244 245 244 244 245 247 248 248 247 247 250 251 252 253 255
282 281 280 280 279 277 275 273 270 268 265 263 261 260 258 257 256 256 255 255 257 258 257 259 260 259 259 261 262 262 262 264 264 262 261 261 261 260 260 259 259 260 260 260 260 259 258 257 256 255 253 252 250 249 247 246 245 243 241 241 241 241 241 241 242 243 244 242 240 241 240 240 241 242 243 243 245 245 246 248 248 246 245 247 249 251 253 254
282 282 282 281 280 278 275 272 269 266 264 262 260 258 257 257 255 255 255 254 256 258 256 257 259 258 258 259 261 261 261 260 260 260 261 261 259 259 259 260 260 260 260 261 260 260 258 257 256 254 252 251 248 246 245 243 240 239 239 238 239 239 239 240 241 243 245 245 241 240 239 238 239 241 243 244 245 244 244 247 249 246 244 245 246 249 251 251
283 283 282 281 280 277 275 271 267 264 263 261 258 257 257 256 255 254 254 253 254 257 256 254 256 257 256 257 258 258 258 257 257 258 260 260 258 259 260 261 260 259 260 261 261 260 258 256 255 253 251 250 247 244 241 240 239 238 238 237 237 238 237 238 240 241 244 246 242 238 239 238 238 241 243 242 242 242 241 245 248 246 244 244 244 245 247 247
283 282 281 280 279 277 274 270 266 263 261 259 258 257 256 256 255 254 253 252 252 255 256 253 254 255 255 254 254 254 255 256 256 255 258 260 259 259 260 259 258 258 259 260 260 259 257 255 254 252 249 247 244 241 240 239 239 237 237 236 236 237 237 237 239 241 243 243 241 238 238 239 239 241 243 241 241 241 240 242 246 245 243 243 242 242 244 245
282 280 278 278 278 276 274 270 266 262 260 259 257 255 254 254 255 254 252 250 249 251 252 251 252 254 253 251 251 250 251 254 254 254 257 260 259 258 258 257 258 259 259 260 260 258 257 254 253 251 248 245 242 241 241 239 237 237 237 237 237 238 238 239 240 241 242 241 240 240 239 239 239 241 243 242 241 242 240 241 244 244 243 242 241 240 242 243
279 277 277 276 276 276 273 270 267 264 260 258 256 253 252 252 253 252 251 248 246 247 248 249 251 252 250 247 248 248 249 251 253 254 257 259 258 258 257 257 258 259 259 259 258 257 255 253 252 249 246 244 242 241 240 237 236 237 237 237 238 238 239 240 241 241 242 241 240 240 239 239 239 240 242 242 242 242 241 240 243 244 243 242 241 241 242 241
277 276 275 274 274 274 273 270 268 265 261 258 257 254 252 251 251 250 248 245 245 245 244 246 249 249 247 246 246 248 249 250 252 253 256 257 257 257 257 256 257 257 257 258 257 255 252 251 250 248 245 243 240 238 237 236 235 235 235 235 236 236 237 239 239 239 240 240 239 238 237 238 239 239 240 240 241 242 243 242 243 244 243 243 242 242 242 242
275 275 274 272 272 272 271 270 267 265 263 260 257 255 252 251 250 249 246 243 243 244 242 242 246 247 246 245 246 248 249 250 251 252 254 256 255 255 256 255 255 256 257 257 256 254 252 251 249 246 244 243 239 236 234 233 234 233 233 234 234 235 236 237 238 238 237 237 238 237 235 235 237 238 238 239 241 243 244 244 243 243 243 242 241 242 242 241
275 275 273 271 270 270 270 268 266 264 262 260 258 255 253 251 250 247 245 242 241 242 241 241 245 246 245 244 245 248 249 249 249 250 253 255 254 254 254 253 254 255 256 256 255 253 250 250 249 246 244 243 240 237 234 232 232 231 231 232 233 234 236 237 238 238 236 237 239 238 235 233 235 237 238 238 240 242 243 243 242 241 240 240 241 241 239 236
274 275 272 270 269 268 268 267 266 264 262 260 258 256 254 252 249 245 243 243 242 242 241 240 243 245 244 243 244 247 248 249 249 250 252 253 252 252 252 252 253 254 254 254 255 252 247 246 247 245 244 242 239 235 233 232 231 231 231 232 233 234 236 237 238 236 235 237 238 238 236 234 235 238 239 239 241 242 242 242 242 242 243 243 242 239 234 230
273 274 273 271 269 267 266 266 266 264 262 260 258 256 255 251 248 245 243 244 243 243 242 241 242 244 243 242 244 246 247 248 249 250 251 252 251 251 251 251 252 253 253 254 255 252 247 243 243 242 240 237 235 233 232 232 232 231 231 232 233 235 235 236 236 234 234 235 237 239 239 237 237 239 239 238 240 241 241 241 239 240 241 239 236 233 229 225
272 273 273 272 269 267 265 265 265 264 262 259 257 255 253 249 247 246 244 245 245 245 245 243 242 242 241 240 243 245 246 247 248 249 250 251 252 252 252 251 251 252 253 253 254 252 247 244 242 240 239 236 234 233 232 231 231 232 232 231 233 234 234 235 235 234 234 235 237 240 240 239 239 239 238 238 239 240 240 240 237 234 231 227 225 225 223 222
272 273 273 272 269 267 266 264 263 263 261 259 257 253 250 248 247 247 246 246 246 246 246 246 244 242 240 240 242 245 247 248 249 250 251 251 252 252 252 251 250 251 251 250 251 250 247 245 243 240 238 236 235 233 230 229 229 230 231 230 230 231 231 232 233 233 234 235 237 239 239 238 236 235 237 237 237 238 238 239 236 232 229 224 219 217 214 213
271 271 271 271 270 267 266 264 263 261 260 258 256 253 250 249 249 248 247 247 247 248 248 248 246 245 243 243 244 246 247 248 250 251 251 250 250 251 251 251 250 250 250 249 249 249 246 245 244 241 237 235 235 232 229 228 227 227 229 228 229 231 232 232 232 232 233 234 236 237 237 236 234 232 235 237 237 235 233 235 234 230 227 223 218 216 211 207
271 271 270 270 270 269 267 265 264 262 261 258 256 254 252 251 250 250 249 248 249 249 248 248 247 246 244 243 243 244 245 247 249 250 249 249 249 250 251 251 250 251 251 249 249 249 247 244 242 240 236 234 234 232 229 229 228 227 228 228 228 229 231 232 234 233 233 233 235 236 236 235 234 232 232 235 237 235 230 229 230 228 224 220 218 218 216 212
271 271 271 271 270 270 269 267 265 264 262 259 257 255 254 252 251 250 250 249 249 249 248 247 245 244 244 243 243 244 245 246 248 248 247 247 248 249 250 250 250 249 250 250 250 249 246 244 242 239 235 233 232 230 228 228 228 227 227 227 228 229 229 231 233 234 234 234 233 234 234 233 233 232 229 228 232 235 233 228 227 227 225 220 217 217 216 213
272 272 272 272 270 270 269 268 266 264 262 260 258 256 254 253 252 251 251 250 249 248 247 246 244 243 244 244 244 245 246 247 246 246 246 247 248 249 249 249 249 248 247 248 249 248 245 243 243 239 234 232 230 228 226 225 226 226 225 226 227 228 228 228 229 231 233 233 233 234 234 232 232 232 229 225 224 230 234 231 229 229 226 221 217 216 216 212
274 274 273 272 272 271 270 269 268 266 264 262 259 257 256 254 252 252 251 250 249 248 247 247 246 245 246 246 246 246 246 245 245 245 246 247 247 247 247 247 246 245 246 246 246 247 245 243 242 239 235 233 230 228 228 226 226 226 225 226 227 227 227 227 227 228 230 231 233 235 236 232 230 230 229 227 225 228 233 232 228 227 225 219 215 215 217 215
275 275 274 274 274 273 273 271 270 268 266 264 261 259 257 255 253 252 251 249 249 248 248 248 247 246 247 247 246 246 245 244 244 244 245 245 244 244 245 246 246 247 248 246 242 241 239 239 239 237 235 234 232 231 233 231 231 229 226 226 226 227 227 228 228 228 228 230 231 234 236 232 225 222 223 225 226 230 235 234 229 227 225 220 217 218 218 218
276 276 276 276 275 275 275 273 272 270 267 265 263 261 258 255 253 252 251 249 249 249 248 246 244 243 244 244 243 243 243 242 241 239 238 239 240 242 244 245 246 247 246 243 239 235 232 233 237 237 236 235 233 232 233 233 233 233 231 230 231 230 230 231 231 230 230 231 230 231 233 233 228 222 220 221 223 227 236 241 237 233 229 223 219 220 222 224
278 278 278 278 277 277 277 276 274 272 270 267 264 262 259 256 253 252 252 252 251 250 247 244 242 241 243 243 243 243 243 241 240 238 236 236 236 237 240 244 245 243 241 242 242 239 233 231 234 236 235 234 233 232 232 232 232 234 234 235 236 234 233 234 234 234 233 235 235 234 234 236 234 229 226 224 223 222 228 236 237 235 230 224 220 218 220 227
280 280 280 281 280 279 277 277 276 274 272 269 265 262 259 257 254 252 252 251 250 248 246 244 241 241 243 244 244 244 244 243 243 241 239 239 237 235 235 237 240 240 240 242 243 241 235 229 229 230 230 232 234 234 234 232 233 235 236 237 237 236 235 233 233 234 235 237 240 240 240 240 238 236 232 229 225 222 223 229 233 233 229 224 222 220 219 223
282 282 282 283 283 282 280 278 276 274 271 269 266 263 260 257 254 251 250 249 248 246 244 243 241 240 241 242 242 241 240 240 240 239 238 239 239 237 235 234 234 237 239 238 238 239 237 230 227 227 227 228 231 233 235 234 233 235 236 236 235 235 236 235 233 234 235 237 238 239 240 240 239 238 236 232 228 223 222 226 227 227 226 225 228 230 227 225
285 285 285 285 284 284 282 280 277 273 270 267 265 262 260 256 254 251 249 248 248 246 244 243 241 239 239 240 240 238 237 237 236 235 234 235 236 237 237 235 234 235 237 237 236 237 237 233 229 227 226 226 226 230 233 233 233 235 237 238 237 236 236 235 233 234 234 236 237 236 237 238 238 239 238 235 231 226 223 222 218 216 220 224 228 229 229 228
287 288 289 289 289 288 287 285 282 277 272 268 264 262 260 257 253 250 248 248 248 246 244 242 240 238 238 239 239 239 239 239 238 236 232 230 231 233 235 236 235 234 234 235 236 236 235 233 231 229 227 225 223 225 229 232 233 234 236 238 239 240 239 237 234 234 233 234 235 235 236 237 237 238 239 238 233 228 225 223 219 217 217 220 223 226 226 226
290 292 293 295 296 296 294 292 289 284 278 272 266 262 260 257 254 250 248 247 246 244 243 242 240 239 238 238 238 238 238 239 238 237 233 229 226 226 229 231 232 233 233 232 233 234 232 232 231 230 228 225 222 222 226 229 230 230 231 232 234 237 240 240 238 236 235 234 234 235 236 236 236 237 238 237 231 225 222 222 222 221 218 217 221 225 226 226
294 296 298 299 299 299 299 298 295 291 284 278 271 265 261 258 255 252 249 247 244 242 242 242 241 239 237 236 235 234 234 235 233 231 230 228 226 225 225 225 227 229 229 228 227 227 227 228 230 231 231 230 227 224 224 226 226 227 229 231 233 235 238 241 241 240 239 238 237 237 238 239 240 239 239 238 233 226 220 220 223 223 221 221 223 226 229 231
298 299 300 301 301 302 302 302 301 297 291 284 276 269 263 259 256 254 251 247 242 239 239 240 240 239 236 235 233 231 230 230 229 227 225 224 224 225 224 222 222 223 225 225 223 221 222 225 227 230 233 235 233 228 225 227 227 226 226 230 234 237 238 241 243 243 242 240 239 241 243 243 243 243 243 242 239 234 227 222 221 224 226 227 228 228 230 233
300 301 302 303 304 305 305 305 303 302 298 292 283 275 268 262 258 254 251 247 242 237 235 236 237 236 233 232 232 230 229 228 227 226 224 222 221 222 223 222 222 222 224 225 223 221 222 225 227 228 231 234 235 232 228 227 229 229 228 229 232 235 237 239 242 245 246 244 240 239 238 237 239 242 244 244 243 240 235 229 225 226 227 227 227 228 230 232
Height
10659 10659 10660 10661 10661 10662 10662 10663 10663 10664 10665 10666 10667 10668 10669 10670 10671 10672 10673 10674 10675 10676 10678 10679 10681 10682 10684 10686 10688 10690 10692 10694 10695 10696 10697 10699 10701 10703 10705 10706 10707 10708 10710 10711 10712 10713 10715 10717 10718 10721 10725 10726 10728 10728 10731 10732 10735 10741 10747 10751 10753 10751 10746 10742 10740 10739 10737 10738 10749 10762 10773 10778 10779 10779 10778 10773 10759 10754 10769 10783 10787 10785 10782 10785 10789 10794 10801 10804
10651 10651 10652 10653 10653 10654 10655 10655 10656 10657 10658 10658 10659 10660 10661 10662 10663 10665 10666 10667 10668 10669 10671 10672 10674 10676 10677 10679 10681 10683 10686 10687 10688 10688 10690 10692 10694 10696 10697 10699 10701 10701 10703 10704 10705 10706 10707 10709 10711 10714 10716 10718 10720 10721 10723 10725 10729 10735 10739 10743 10743 10740 10734 10731 10730 10730 10732 10736 10746 10763 10771 10767 10766 10768 10767 10764 10754 10753 10768 10776 10778 10776 10772 10778 10786 10791 10795 10794
10643 10644 10645 10645 10646 10647 10647 10648 10648 10649 10650 10651 10652 10653 10654 10655 10656 10657 10658 10660 10661 10663 10664 10666 10667 10669 10671 10673 10675 10677 10679 10681 10680 10679 10683 10686 10687 10689 10690 10692 10693 10694 10696 10697 10697 10699 10699 10702 10704 10707 10708 10710 10712 10713 10716 10718 10723 10727 10732 10736 10732 10727 10723 10722 10723 10722 10728 10734 10741 10757 10764 10758 10756 10755 10754 10760 10755 10750 10762 10768 10769 10769 10766 10772 10782 10785 10785 10784
10636 10637 10637 10638 10639 10639 10640 10640 10641 10642 10642 10643 10644 10645 10646 10647 10649 10650 10652 10653 10654 10656 10658 10659 10661 10662 10664 10666 10668 10670 10673 10675 10672 10671 10676 10679 10679 10681 10683 10684 10686 10687 10688 10689 10690 10691 10692 10695 10696 10699 10701 10703 10704 10706 10709 10711 10715 10719 10725 10727 10720 10717 10716 10714 10715 10716 10725 10734 10739 10749 10753 10752 10750 10742 10742 10755 10751 10743 10755 10762 10761 10762 10761 10766 10774 10777 10775 10775
10629 10630 10630 10631 10631 10632 10632 10633 10634 10634 10635 10636 10637 10638 10639 10640 10642 10643 10645 10647 10648 10649 10651 10653 10654 10656 10658 10659 10661 10664 10666 10668 10664 10663 10668 10672 10672 10674 10675 10676 10678 10679 10681 10681 10682 10683 10685 10687 10689 10692 10693 10694 10695 10699 10701 10702 10706 10711 10717 10716 10710 10710 10708 10707 10709 10713 10724 10732 10735 10738 10740 10741 10738 10733 10735 10745 10743 10741 10752 10757 10755 10756 10757 10760 10765 10767 10768 10768
10622 10623 10623 10624 10624 10625 10625 10626 10627 10627 10628 10629 10630 10631 10633 10634 10635 10637 10638 10640 10641 10643 10644 10646 10647 10649 10651 10652 10655 10657 10659 10661 10657 10656 10660 10664 10665 10666 10667 10669 10670 10672 10673 10673 10674 10676 10677 10679 10681 10683 10685 10686 10688 10691 10691 10693 10699 10704 10708 10707 10702 10702 10700 10702 10706 10711 10719 10725 10728 10728 10726 10725 10727 10731 10732 10733 10737 10740 10747 10751 10749 10749 10752 10754 10755 10759 10761 10763
10616 10616 10617 10617 10618 10618 10619 10619 10620 10621 10621 10622 10623 10625 10626 10627 10629 10630 10632 10633 10635 10636 10638 10639 10640 10642 10644 10646 10648 10650 10652 10654 10650 10648 10652 10656 10658 10658 10660 10661 10662 10663 10664 10665 10666 10667 10669 10671 10673 10674 10676 10678 10679 10682 10682 10684 10692 10697 10699 10697 10694 10693 10693 10696 10701 10707 10713 10716 10719 10718 10714 10715 10722 10728 10723 10725 10733 10737 10740 10744 10742 10743 10747 10748 10749 10752 10753 10758
10609 10610 10610 10610 10611 10611 10612 10613 10613 10614 10615 10616 10617 10618 10619 10621 10622 10624 10625 10627 10628 10630 10631 10632 10633 10635 10637 10639 10641 10643 10645 10645 10643 10643 10645 10648 10650 10651 10653 10653 10654 10655 10656 10657 10658 10659 10660 10662 10663 10665 10667 10668 10670 10673 10674 10677 10684 10689 10688 10686 10685 10686 10686 10690 10696 10700 10703 10709 10711 10707 10706 10710 10716 10717 10714 10722 10729 10729 10734 10736 10734 10737 10742 10743 10745 10745 10746 10750
10603 10603 10603 10604 10604 10605 10605 10606 10606 10607 10608 10609 10610 10611 10613 10614 10615 10617 10618 10620 10621 10623 10624 10625 10627 10628 10630 10632 10633 10636 10637 10636 10637 10638 10638 10639 10641 10644 10645 10645 10645 10646 10647 10648 10649 10650 10651 10652 10653 10656 10658 10659 10661 10664 10666 10670 10675 10678 10677 10675 10677 10679 10680 10684 10690 10692 10696 10705 10703 10696 10698 10704 10706 10706 10709 10719 10722 10721 10727 10728 10729 10732 10736 10738 10739 10739 10740 10743
10596 10597 10597 10597 10598 10598 10598 10599 10600 10601 10601 10602 10603 10604 10606 10607 10609 10611 10612 10614 10615 10616 10617 10618 10620 10622 10623 10625 10626 10628 10630 10630 10630 10630 10630 10632 10634 10635 10636 10636 10636 10637 10638 10639 10640 10641 10641 10642 10644 10646 10649 10650 10652 10654 10657 10661 10664 10666 10666 10666 10668 10671 10673 10678 10683 10686 10690 10697 10693 10686 10691 10696 10696 10698 10704 10713 10713 10712 10718 10722 10726 10728 10729 10731 10731 10733 10735 10737
10589 10590 10590 10590 10591 10591 10591 10592 10593 10594 10594 10595 10596 10598 10599 10601 10602 10604 10606 10607 10608 10609 10610 10611 10613 10615 10616 10617 10618 10621 10624 10624 10622 10620 10623 10625 10626 10627 10627 10627 10628 10629 10629 10630 10631 10632 10632 10633 10635 10638 10640 10640 10642 10645 10648 10652 10653 10655 10658 10657 10659 10664 10668 10671 10676 10678 10680 10686 10684 10680 10684 10688 10689 10693 10698 10702 10703 10705 10712 10716 10721 10723 10723 10724 10725 10727 10729 10731
10582 10583 10583 10583 10584 10584 10584 10585 10585 10586 10587 10588 10589 10590 10592 10594 10595 10597 10599 10601 10602 10602 10603 10605 10606 10608 10609 10608 10611 10614 10615 10616 10615 10614 10615 10617 10618 10619 10618 10618 10619 10620 10621 10621 10622 10623 10623 10624 10627 10629 10630 10631 10633 10636 10639 10642 10643 10646 10649 10649 10652 10658 10662 10664 10667 10668 10671 10676 10675 10674 10678 10682 10684 10687 10688 10691 10694 10700 10708 10710 10713 10717 10717 10718 10720 10721 10723 10724
10575 10576 10576 10576 10576 10577 10577 10577 10578 10579 10579 10580 10581 10583 10584 10586 10588 10590 10592 10594 10595 10595 10596 10598 10599 10601 10601 10600 10604 10607 10606 10608 10610 10609 10607 10607 10610 10610 10610 10610 10610 10612 10612 10612 10613 10614 10615 10616 10618 10620 10621 10623 10625 10628 10631 10632 10635 10639 10640 10642 10646 10652 10654 10655 10657 10659 10664 10667 10666 10669 10674 10676 10678 10679 10678 10681 10686 10694 10704 10705 10706 10710 10710 10712 10714 10714 10717 10718
10568 10568 10569 10569 10569 10569 10570 10570 10571 10571 10572 10572 10573 10575 10576 10578 10580 10583 10585 10587 10588 10588 10589 10591 10593 10594 10593 10593 10597 10598 10598 10600 10602 10601 10600 10599 10601 10602 10602 10603 10602 10604 10604 10604 10605 10605 10606 10607 10610 10612 10612 10615 10618 10620 10623 10624 10629 10632 10632 10636 10640 10644 10647 10646 10648 10652 10657 10659 10657 10664 10670 10669 10670 10671 10671 10674 10678 10685 10698 10701 10700 10703 10704 10706 10708 10708 10710 10712
10561 10561 10561 10561 10561 10561 10562 10562 10563 10564 10564 10564 10565 10567 10568 10570 10573 10575 10578 10579 10580 10581 10582 10584 10586 10587 10586 10586 10588 10590 10591 10593 10593 10592 10593 10592 10593 10594 10595 10595 10594 10595 10595 10596 10597 10597 10598 10599 10603 10604 10604 10609 10612 10613 10615 10619 10623 10623 10626 10630 10632 10637 10638 10636 10640 10645 10650 10651 10650 10658 10666 10662 10661 10664 10665 10667 10671 10678 10689 10695 10696 10699 10700 10700 10700 10702 10704 10705
10553 10554 10554 10553 10553 10553 10553 10554 10555 10555 10555 10556 10557 10558 10560 10562 10565 10568 10570 10572 10572 10573 10575 10578 10579 10579 10579 10578 10580 10583 10583 10584 10585 10584 10584 10585 10586 10587 10587 10587 10587 10587 10588 10589 10590 10591 10591 10592 10595 10597 10598 10603 10606 10605 10608 10614 10616 10616 10619 10622 10624 10629 10629 10629 10634 10638 10641 10643 10645 10653 10659 10656 10655 10658 10659 10661 10665 10672 10680 10687 10691 10694 10695 10694 10692 10695 10699 10699
10546 10546 10546 10545 10545 10545 10545 10545 10546 10546 10547 10547 10548 10549 10551 10553 10557 10559 10562 10564 10564 10565 10567 10571 10571 10572 10573 10572 10572 10576 10576 10576 10576 10575 10577 10579 10580 10580 10580 10579 10579 10581 10581 10582 10583 10584 10585 10586 10589 10591 10593 10597 10598 10599 10604 10609 10608 10606 10609 10613 10616 10619 10621 10623 10627 10629 10633 10636 10640 10646 10651 10653 10649 10649 10653 10656 10659 10666 10673 10679 10685 10690 10689 10688 10686 10689 10694 10695
10538 10538 10538 10537 10537 10536 10536 10536 10537 10537 10538 10537 10538 10540 10541 10544 10548 10551 10554 10556 10555 10556 10560 10564 10564 10564 10566 10565 10565 10568 10569 10568 10567 10569 10572 10572 10572 10573 10573 10572 10572 10575 10575 10575 10576 10577 10579 10581 10583 10586 10587 10590 10590 10592 10598 10599 10596 10597 10601 10605 10608 10612 10616 10619 10619 10621 10626 10630 10635 10639 10646 10648 10642 10641 10648 10652 10654 10661 10669 10670 10675 10684 10683 10681 10682 10684 10688 10691
10530 10530 10530 10529 10528 10528 10527 10527 10528 10528 10528 10528 10529 10530 10532 10535 10538 10542 10546 10546 10546 10549 10553 10556 10555 10556 10558 10558 10559 10560 10561 10560 10559 10563 10566 10564 10565 10567 10566 10566 10566 10568 10569 10568 10569 10572 10575 10576 10578 10580 10579 10580 10581 10585 10590 10589 10588 10591 10596 10599 10603 10608 10612 10615 10614 10613 10619 10626 10629 10633 10641 10641 10633 10636 10645 10648 10650 10657 10665 10663 10665 10676 10678 10677 10680 10680 10682 10687
10523 10522 10521 10521 10520 10519 10518 10518 10518 10518 10518 10519 10520 10521 10523 10526 10529 10533 10537 10537 10538 10541 10545 10548 10548 10548 10550 10551 10552 10552 10553 10553 10553 10558 10559 10556 10558 10561 10560 10560 10560 10561 10562 10563 10564 10566 10570 10571 10571 10571 10570 10572 10575 10579 10582 10583 10584 10587 10591 10595 10600 10603 10607 10610 10607 10605 10612 10622 10624 10625 10635 10635 10626 10632 10641 10644 10647 10651 10657 10657 10659 10669 10672 10673 10677 10677 10678 10682
10515 10514 10513 10512 10511 10510 10509 10508 10508 10509 10509 10510 10511 10512 10514 10518 10521 10524 10528 10528 10529 10533 10537 10539 10541 10540 10543 10545 10544 10545 10547 10546 10547 10551 10552 10550 10551 10554 10554 10553 10554 10555 10556 10558 10560 10561 10564 10564 10561 10562 10563 10567 10571 10573 10576 10578 10578 10581 10587 10591 10594 10596 10599 10601 10598 10597 10604 10614 10618 10618 10625 10629 10623 10626 10636 10639 10642 10647 10651 10652 10656 10663 10666 10668 10674 10675 10675 10676
10507 10506 10505 10504 10503 10502 10499 10498 10499 10499 10500 10501 10502 10504 10506 10509 10512 10515 10520 10521 10520 10525 10529 10531 10534 10534 10535 10538 10537 10539 10541 10540 10542 10545 10545 10543 10544 10548 10548 10547 10548 10550 10551 10554 10554 10555 10557 10555 10554 10557 10560 10564 10566 10568 10571 10571 10572 10577 10582 10585 10587 10588 10589 10591 10590 10591 10597 10604 10611 10613 10617 10624 10621 10620 10629 10634 10637 10642 10645 10647 10651 10657 10661 10664 10669 10671 10670 10672
10499 10498 10497 10496 10495 10493 10490 10489 10489 10490 10492 10493 10494 10496 10498 10501 10504 10507 10512 10514 10512 10517 10522 10523 10527 10529 10527 10529 10531 10533 10534 10534 10536 10538 10538 10537 10538 10543 10542 10541 10544 10545 10546 10547 10548 10549 10548 10547 10550 10554 10556 10558 10560 10562 10564 10565 10568 10573 10576 10577 10579 10579 10581 10584 10584 10584 10587 10594 10604 10609 10613 10617 10616 10617 10623 10627 10632 10638 10640 10641 10645 10653 10659 10662 10664 10666 10665 10669
10491 10490 10489 10488 10487 10484 10482 10480 10481 10482 10484 10485 10487 10488 10490 10492 10496 10500 10504 10509 10506 10507 10516 10518 10519 10520 10520 10523 10526 10526 10528 10529 10529 10531 10532 10531 10534 10538 10535 10535 10539 10540 10540 10541 10543 10543 10541 10543 10547 10549 10550 10552 10554 10556 10558 10560 10564 10566 10568 10570 10571 10573 10576 10578 10577 10577 10579 10589 10601 10607 10610 10610 10610 10612 10616 10622 10629 10634 10636 10634 10637 10648 10656 10659 10660 10661 10661 10664
10483 10483 10482 10480 10479 10476 10474 10473 10474 10475 10476 10478 10479 10480 10483 10485 10489 10493 10497 10503 10501 10499 10509 10513 10510 10510 10514 10518 10519 10518 10522 10523 10522 10526 10527 10525 10529 10531 10529 10531 10534 10534 10534 10536 10538 10537 10536 10540 10542 10542 10544 10546 10548 10551 10552 10554 10557 10559 10562 10564 10565 10567 10571 10571 10572 10573 10574 10585 10598 10602 10603 10605 10605 10606 10611 10620 10625 10629 10632 10629 10630 10643 10652 10655 10657 10657 10657 10658
10476 10476 10475 10473 10471 10469 10467 10466 10467 10469 10470 10470 10471 10473 10477 10478 10482 10487 10490 10497 10497 10493 10501 10507 10502 10502 10509 10513 10513 10512 10515 10516 10518 10522 10520 10518 10524 10526 10525 10528 10528 10528 10530 10531 10533 10532 10531 10535 10536 10537 10539 10541 10543 10545 10546 10548 10552 10555 10556 10558 10559 10561 10565 10566 10567 10569 10571 10581 10593 10596 10596 10599 10602 10602 10608 10617 10619 10622 10628 10625 10625 10638 10647 10650 10652 10653 10652 10651
10470 10470 10469 10467 10464 10463 10461 10460 10461 10464 10464 10462 10464 10468 10471 10472 10475 10480 10485 10491 10491 10488 10493 10498 10495 10495 10503 10508 10506 10506 10509 10510 10513 10516 10514 10513 10519 10521 10521 10522 10521 10523 10525 10527 10527 10526 10526 10530 10531 10531 10534 10536 10538 10538 10540 10544 10548 10550 10550 10552 10554 10556 10559 10561 10563 10566 10570 10578 10586 10589 10592 10595 10598 10600 10603 10610 10612 10616 10623 10621 10621 10633 10641 10643 10646 10647 10646 10647
10464 10464 10463 10461 10458 10457 10456 10455 10454 10457 10458 10457 10459 10463 10465 10466 10470 10474 10480 10485 10485 10483 10485 10488 10488 10490 10497 10501 10499 10500 10504 10505 10506 10510 10510 10509 10513 10516 10515 10516 10516 10518 10521 10522 10522 10521 10523 10526 10526 10527 10529 10531 10532 10534 10537 10541 10543 10543 10545 10548 10550 10552 10555 10556 10560 10564 10567 10575 10580 10583 10587 10590 10594 10596 10597 10603 10607 10611 10616 10616 10618 10628 10635 10637 10639 10640 10641 10645
10458 10458 10458 10456 10453 10452 10451 10450 10449 10452 10453 10452 10454 10458 10459 10462 10465 10469 10475 10478 10476 10476 10479 10482 10482 10484 10490 10493 10492 10494 10500 10500 10501 10505 10506 10504 10507 10510 10510 10511 10513 10514 10516 10517 10516 10517 10518 10520 10521 10522 10524 10525 10528 10531 10534 10536 10537 10538 10542 10545 10546 10549 10551 10553 10557 10561 10565 10572 10576 10578 10582 10585 10589 10591 10592 10598 10602 10604 10608 10611 10616 10625 10629 10630 10632 10634 10637 10642
10452 10452 10452 10451 10449 10447 10447 10445 10445 10447 10448 10448 10450 10452 10455 10457 10460 10464 10470 10471 10469 10469 10474 10477 10476 10477 10482 10486 10487 10490 10495 10495 10496 10501 10501 10499 10503 10505 10505 10507 10508 10509 10511 10511 10511 10512 10514 10516 10517 10518 10519 10521 10524 10528 10530 10531 10533 10535 10539 10540 10542 10545 10547 10549 10554 10557 10563 10568 10570 10572 10577 10580 10583 10585 10587 10593 10597 10598 10602 10607 10614 10620 10622 10623 10625 10628 10633 10638
10446 10446 10446 10446 10444 10443 10442 10441 10442 10443 10443 10445 10446 10448 10451 10453 10456 10461 10463 10462 10462 10463 10469 10471 10469 10471 10477 10480 10482 10485 10489 10490 10492 10496 10495 10494 10498 10500 10500 10502 10503 10504 10506 10506 10507 10508 10510 10512 10512 10513 10514 10517 10521 10524 10525 10526 10528 10531 10534 10535 10538 10541 10542 10545 10550 10555 10561 10563 10563 10567 10571 10575 10578 10579 10583 10590 10592 10593 10597 10604 10610 10614 10615 10617 10619 10624 10630 10633
10440 10440 10440 10440 10440 10439 10438 10437 10437 10439 10440 10441 10442 10444 10447 10449 10453 10456 10455 10455 10457 10458 10462 10465 10463 10466 10471 10475 10478 10481 10483 10485 10487 10490 10489 10490 10493 10494 10495 10496 10497 10499 10500 10501 10502 10504 10507 10508 10507 10508 10510 10514 10518 10520 10521 10522 10524 10527 10529 10531 10534 10536 10539 10542 10547 10553 10557 10557 10557 10561 10565 10570 10572 10574 10581 10586 10587 10589 10594 10600 10605 10606 10608 10610 10614 10620 10624 10626
10434 10434 10435 10435 10435 10435 10433 10432 10433 10435 10436 10437 10439 10441 10443 10446 10448 10448 10447 10449 10451 10452 10455 10458 10458 10461 10466 10471 10474 10475 10477 10479 10482 10485 10484 10485 10488 10489 10490 10491 10493 10494 10494 10496 10499 10500 10502 10503 10503 10504 10507 10510 10513 10515 10516 10517 10520 10523 10525 10528 10530 10533 10536 10540 10544 10549 10551 10552 10553 10555 10559 10565 10568 10572 10579 10582 10583 10586 10591 10596 10599 10600 10603 10606 10611 10615 10617 10619
10429 10429 10429 10430 10430 10431 10429 10428 10429 10431 10433 10434 10436 10438 10440 10442 10441 10441 10442 10443 10444 10446 10449 10452 10454 10457 10462 10466 10468 10469 10471 10474 10477 10478 10478 10479 10482 10484 10485 10486 10488 10488 10490 10493 10494 10495 10498 10498 10498 10500 10502 10506 10508 10509 10511 10514 10517 10519 10522 10525 10527 10530 10533 10536 10539 10543 10546 10547 10548 10550 10555 10562 10567 10571 10575 10577 10578 10582 10587 10591 10594 10596 10599 10602 10605 10608 10610 10612
10424 10424 10424 10425 10425 10425 10425 10425 10425 10426 10428 10430 10432 10434 10435 10435 10434 10435 10437 10438 10439 10440 10442 10446 10450 10453 10458 10461 10462 10464 10466 10468 10470 10472 10473 10475 10477 10479 10480 10481 10483 10483 10485 10489 10489 10491 10493 10494 10495 10496 10499 10502 10503 10504 10508 10511 10514 10516 10518 10522 10525 10526 10529 10532 10535 10538 10541 10543 10544 10547 10553 10559 10564 10568 10570 10572 10575 10579 10583 10587 10590 10592 10593 10595 10599 10602 10604 10606
10418 10419 10419 10419 10420 10420 10420 10420 10420 10422 10423 10425 10428 10429 10428 10428 10428 10430 10432 10433 10433 10434 10436 10441 10445 10449 10453 10455 10457 10459 10460 10462 10465 10466 10469 10471 10472 10473 10474 10476 10478 10479 10481 10484 10484 10486 10489 10490 10491 10494 10496 10498 10499 10501 10505 10507 10509 10512 10515 10518 10519 10521 10524 10527 10530 10533 10537 10540 10542 10545 10549 10555 10559 10562 10565 10569 10572 10577 10580 10583 10585 10587 10587 10590 10595 10598 10600 10602
10413 10414 10414 10413 10414 10415 10415 10415 10416 10417 10418 10421 10422 10421 10421 10422 10423 10424 10426 10427 10427 10429 10433 10437 10439 10444 10449 10450 10453 10454 10454 10456 10459 10461 10464 10466 10467 10468 10469 10470 10473 10474 10476 10478 10480 10482 10485 10487 10488 10490 10492 10493 10494 10498 10500 10502 10505 10508 10510 10513 10514 10517 10520 10523 10526 10529 10533 10536 10538 10541 10545 10549 10553 10557 10561 10565 10569 10575 10578 10578 10579 10581 10583 10587 10591 10593 10596 10599
10408 10408 10409 10408 10408 10408 10409 10409 10410 10412 10413 10415 10415 10415 10416 10417 10418 10419 10420 10421 10422 10424 10428 10431 10434 10439 10442 10443 10446 10446 10447 10450 10452 10455 10459 10461 10461 10463 10464 10465 10468 10470 10471 10473 10476 10479 10481 10483 10485 10486 10488 10489 10491 10494 10496 10498 10501 10503 10506 10509 10510 10513 10516 10519 10522 10526 10530 10532 10535 10537 10540 10544 10549 10554 10558 10561 10566 10570 10572 10572 10574 10576 10579 10583 10587 10589 10592 10596
10403 10403 10403 10403 10402 10402 10402 10403 10404 10406 10408 10409 10409 10409 10410 10411 10412 10412 10414 10414 10415 10418 10421 10424 10428 10431 10434 10436 10438 10438 10441 10445 10447 10449 10453 10455 10456 10458 10459 10460 10463 10465 10467 10469 10472 10475 10478 10480 10481 10482 10484 10485 10487 10490 10492 10493 10495 10498 10502 10504 10506 10508 10512 10515 10518 10522 10525 10528 10531 10532 10535 10540 10545 10551 10556 10559 10561 10563 10565 10567 10569 10571 10575 10579 10582 10585 10589 10592
10398 10398 10397 10396 10396 10396 10396 10396 10398 10399 10400 10401 10402 10403 10403 10405 10405 10406 10406 10407 10409 10411 10413 10415 10421 10426 10427 10428 10430 10432 10436 10439 10441 10444 10448 10451 10453 10454 10454 10455 10458 10460 10462 10465 10468 10471 10475 10477 10477 10478 10479 10481 10484 10485 10486 10488 10490 10493 10497 10499 10501 10504 10507 10510 10514 10517 10519 10523 10526 10527 10530 10536 10542 10547 10552 10555 10557 10558 10559 10562 10565 10568 10572 10576 10579 10582 10585 10587
10392 10392 10391 10390 10389 10389 10390 10390 10391 10392 10393 10393 10394 10395 10396 10398 10398 10398 10399 10400 10401 10403 10405 10410 10417 10421 10420 10421 10425 10427 10429 10432 10436 10441 10445 10448 10449 10448 10448 10450 10453 10454 10457 10461 10464 10467 10472 10474 10473 10475 10476 10478 10479 10480 10480 10483 10486 10489 10492 10494 10496 10499 10502 10505 10509 10511 10514 10518 10521 10522 10526 10533 10539 10542 10547 10551 10553 10554 10556 10559 10562 10565 10569 10573 10576 10579 10583 10585
10387 10385 10384 10384 10383 10382 10383 10383 10384 10385 10386 10385 10386 10388 10389 10390 10390 10390 10391 10391 10392 10394 10400 10406 10411 10413 10412 10414 10417 10418 10420 10426 10432 10437 10440 10441 10442 10443 10444 10445 10448 10451 10454 10458 10460 10463 10467 10468 10468 10471 10473 10474 10475 10476 10478 10481 10483 10486 10488 10489 10490 10493 10497 10501 10503 10506 10510 10512 10515 10518 10521 10528 10534 10538 10542 10547 10549 10551 10553 10555 10558 10561 10564 10569 10573 10576 10578 10581
10382 10379 10378 10378 10377 10376 10376 10376 10377 10377 10378 10378 10378 10379 10380 10381 10382 10381 10380 10382 10384 10389 10395 10400 10402 10404 10403 10404 10407 10409 10414 10421 10425 10428 10431 10433 10437 10439 10440 10441 10444 10448 10450 10452 10454 10458 10461 10462 10463 10467 10470 10471 10472 10474 10476 10478 10480 10482 10484 10484 10487 10492 10495 10497 10500 10503 10506 10507 10509 10514 10517 10522 10529 10535 10539 10543 10546 10549 10551 10552 10554 10557 10559 10563 10567 10570 10572 10574
10376 10374 10371 10371 10371 10370 10369 10368 10369 10369 10369 10370 10370 10369 10370 10372 10373 10373 10373 10375 10379 10383 10387 10390 10393 10394 10394 10395 10399 10403 10408 10414 10416 10419 10424 10427 10431 10434 10435 10437 10440 10442 10444 10446 10449 10453 10456 10458 10460 10463 10466 10468 10469 10471 10472 10474 10476 10477 10480 10482 10486 10490 10493 10495 10497 10500 10501 10502 10505 10510 10513 10519 10526 10531 10534 10538 10542 10546 10549 10549 10550 10552 10554 10557 10560 10563 10566 10567
10370 10369 10366 10364 10364 10364 10363 10362 10362 10361 10360 10360 10360 10360 10361 10362 10364 10366 10366 10367 10370 10374 10377 10380 10383 10386 10387 10388 10393 10398 10403 10407 10408 10412 10419 10423 10427 10428 10430 10432 10435 10436 10438 10442 10445 10448 10451 10454 10456 10458 10462 10463 10465 10467 10469 10471 10473 10474 10476 10479 10482 10484 10487 10489 10493 10496 10497 10499 10502 10507 10512 10517 10522 10525 10528 10532 10536 10539 10541 10543 10544 10545 10547 10550 10553 10556 10558 10560
10364 10363 10361 10359 10357 10356 10356 10356 10355 10354 10352 10352 10351 10351 10352 10353 10355 10357 10358 10357 10359 10364 10368 10371 10375 10378 10378 10380 10385 10390 10394 10396 10399 10405 10413 10418 10422 10424 10425 10428 10429 10430 10434 10438 10440 10442 10446 10449 10452 10454 10457 10459 10461 10462 10464 10466 10469 10470 10472 10474 10476 10478 10480 10484 10488 10490 10492 10496 10500 10505 10508 10512 10516 10518 10521 10525 10528 10532 10534 10536 10537 10538 10540 10544 10546 10548 10550 10552
10358 10356 10355 10354 10352 10350 10349 10349 10348 10347 10346 10345 10344 10343 10344 10345 10347 10348 10349 10349 10351 10356 10360 10362 10366 10369 10369 10372 10377 10381 10384 10387 10391 10398 10407 10414 10418 10420 10422 10424 10425 10427 10430 10433 10435 10437 10441 10444 10446 10449 10452 10454 10456 10458 10459 10461 10463 10465 10467 10469 10471 10473 10475 10478 10481 10483 10487 10492 10496 10499 10502 10505 10508 10510 10513 10518 10522 10525 10528 10530 10532 10534 10536 10537 10538 10539 10542 10544
10353 10351 10349 10348 10346 10344 10343 10342 10342 10340 10339 10339 10338 10337 10337 10338 10339 10340 10341 10342 10345 10348 10351 10353 10356 10359 10362 10366 10371 10376 10379 10382 10388 10395 10403 10408 10411 10414 10417 10419 10421 10423 10425 10428 10430 10432 10435 10438 10440 10444 10446 10448 10452 10453 10455 10457 10459 10461 10463 10464 10466 10468 10469 10472 10475 10478 10482 10485 10487 10491 10495 10498 10501 10504 10507 10512 10517 10521 10524 10526 10528 10530 10531 10531 10531 10533 10536 10539
10349 10347 10345 10343 10341 10338 10337 10336 10336 10334 10333 10332 10332 10331 10331 10332 10333 10333 10334 10336 10338 10340 10342 10345 10347 10351 10356 10360 10366 10372 10374 10378 10384 10391 10397 10400 10402 10405 10409 10412 10416 10418 10420 10423 10425 10428 10431 10433 10435 10438 10440 10443 10446 10448 10451 10453 10454 10456 10458 10459 10462 10463 10464 10466 10470 10474 10476 10478 10481 10485 10488 10491 10494 10497 10500 10505 10511 10517 10522 10522 10521 10522 10525 10526 10528 10530 10533 10534
10346 10344 10341 10339 10337 10335 10332 10331 10330 10329 10328 10327 10326 10326 10326 10326 10326 10327 10328 10330 10332 10334 10336 10338 10340 10344 10350 10355 10359 10363 10365 10369 10376 10381 10386 10391 10395 10397 10401 10406 10410 10412 10414 10416 10420 10423 10425 10427 10429 10432 10435 10437 10441 10444 10445 10446 10448 10451 10452 10454 10456 10459 10460 10462 10465 10468 10470 10472 10476 10480 10482 10485 10488 10491 10493 10496 10502 10509 10514 10514 10512 10514 10518 10522 10524 10525 10525 10525
10343 10340 10338 10336 10334 10331 10329 10327 10325 10324 10323 10322 10321 10321 10320 10321 10321 10322 10323 10325 10327 10328 10330 10332 10334 10338 10344 10348 10351 10353 10356 10360 10365 10370 10376 10382 10387 10390 10394 10399 10403 10405 10405 10408 10413 10416 10418 10420 10423 10426 10429 10432 10435 10439 10440 10441 10443 10445 10447 10449 10452 10454 10456 10458 10460 10462 10464 10467 10472 10475 10477 10480 10482 10484 10486 10489 10493 10499 10503 10504 10505 10507 10511 10514 10516 10516 10515 10515
10340 10338 10335 10333 10331 10328 10326 10324 10322 10320 10319 10318 10317 10316 10316 10316 10316 10317 10318 10319 10320 10322 10324 10326 10328 10332 10337 10340 10342 10345 10349 10352 10356 10362 10369 10375 10380 10384 10388 10393 10396 10397 10398 10402 10406 10409 10409 10412 10417 10419 10422 10425 10427 10431 10434 10435 10438 10440 10443 10445 10446 10448 10451 10453 10455 10456 10458 10462 10467 10471 10473 10474 10476 10477 10479 10482 10486 10489 10492 10494 10496 10498 10502 10506 10508 10508 10508 10508